Back to catalog

STARLINK-30926

AliveCommunicationsVLEO
NORAD 58448·PAYLOAD·🇺🇸 United States

Launched Nov 28, 2023 from Cape Canaveral Space Force Station

Loading…

Next Passes (next 24 hours)

TLE

FreshSource: CelesTrak SupGP

Epoch: Sep 14, 2026, 22:00 UTC

1 58448C 23183M   26257.91715278  .00065490  00000+0  23712-2 0  2575
2 58448  43.0041  52.5385 0001575 268.2472 274.3971 15.27557783    14

Track STARLINK-30926 in real time with AllMySat

Download on the App Store